• In Germany
  • List of Countries
  • For 7 days
  • Water Temperature
  • Satellite Maps
  • Weather Map
  • Weather Widgets
  • user-avatar
    Login

    Hourly Weather Biskira

    Today, 29 May, Monday

    Time Temperature Precipitation Wind Pressure Humidity
    00:00 +29°C° 0 mm 5 mps 751 mmHg 37%
    01:00 +28°C° 0 mm 5 mps 751 mmHg 39%
    02:00 +27°C° 0 mm 4 mps 751 mmHg 41%
    03:00 +26°C° 0 mm 4 mps 751 mmHg 42%
    04:00 +26°C° 0 mm 4 mps 751 mmHg 43%
    05:00 +26°C° 0 mm 3 mps 751 mmHg 43%
    06:00 +26°C° 0 mm 3 mps 751 mmHg 43%
    07:00 +27°C° 0 mm 3 mps 751 mmHg 41%
    08:00 +28°C° 0 mm 3 mps 751 mmHg 39%
    09:00 +29°C° 0 mm 3 mps 751 mmHg 37%
    10:00 +30°C° 0 mm 3 mps 751 mmHg 34%
    11:00 +31°C° 0 mm 3 mps 751 mmHg 32%
    12:00 +35°C° 0 mm 3 mps 750 mmHg 27%
    13:00 +35°C° 0.3 mm 3 mps 750 mmHg 27%
    14:00 +35°C° 0.3 mm 3 mps 750 mmHg 27%
    15:00 +35°C° 0.3 mm 3 mps 749 mmHg 27%
    16:00 +35°C° 0.5 mm 3 mps 749 mmHg 28%
    17:00 +34°C° 0.5 mm 3 mps 749 mmHg 29%
    18:00 +34°C° 0.5 mm 3 mps 750 mmHg 31%
    19:00 +33°C° 0.1 mm 4 mps 750 mmHg 32%
    20:00 +32°C° 0.1 mm 5 mps 750 mmHg 33%
    21:00 +30°C° 0.1 mm 5 mps 751 mmHg 35%
    22:00 +29°C° 0.2 mm 5 mps 751 mmHg 37%
    23:00 +28°C° 0.2 mm 5 mps 751 mmHg 39%

    Tomorrow, 30 May, Tuesday

    Time Temperature Precipitation Wind Pressure Humidity
    00:00 +27°C° 0.2 mm 5 mps 752 mmHg 40%
    01:00 +27°C° 0.1 mm 5 mps 751 mmHg 42%
    02:00 +26°C° 0.1 mm 4 mps 751 mmHg 43%
    03:00 +25°C° 0.1 mm 4 mps 751 mmHg 44%
    04:00 +25°C° 0 mm 4 mps 751 mmHg 43%
    05:00 +25°C° 0 mm 3 mps 752 mmHg 43%
    06:00 +25°C° 0 mm 3 mps 752 mmHg 42%
    07:00 +26°C° 0 mm 3 mps 752 mmHg 39%
    08:00 +27°C° 0 mm 3 mps 752 mmHg 36%
    09:00 +28°C° 0 mm 3 mps 753 mmHg 33%
    10:00 +29°C° 0 mm 3 mps 753 mmHg 31%
    11:00 +29°C° 0 mm 3 mps 753 mmHg 30%
    12:00 +30°C° 0 mm 2 mps 753 mmHg 28%
    13:00 +30°C° 0 mm 3 mps 753 mmHg 30%
    14:00 +30°C° 0 mm 3 mps 752 mmHg 32%
    15:00 +30°C° 0 mm 3 mps 752 mmHg 34%
    16:00 +30°C° 0 mm 3 mps 752 mmHg 35%
    17:00 +30°C° 0 mm 3 mps 752 mmHg 37%
    18:00 +30°C° 0 mm 3 mps 752 mmHg 38%
    19:00 +29°C° 0 mm 2 mps 752 mmHg 40%
    20:00 +29°C° 0 mm 2 mps 753 mmHg 41%
    21:00 +28°C° 0 mm 2 mps 753 mmHg 43%
    22:00 +28°C° 0 mm 2 mps 753 mmHg 44%
    23:00 +27°C° 0 mm 2 mps 753 mmHg 45%

    Day after tomorrow, 31 May, Wednesday

    Time Temperature Precipitation Wind Pressure Humidity
    00:00 +27°C° 0 mm 3 mps 753 mmHg 45%
    01:00 +26°C° 0 mm 2 mps 753 mmHg 46%
    02:00 +26°C° 0 mm 2 mps 753 mmHg 46%
    03:00 +25°C° 0 mm 2 mps 753 mmHg 47%
    04:00 +25°C° 0 mm 1 mps 753 mmHg 46%
    05:00 +26°C° 0 mm 1 mps 753 mmHg 44%
    06:00 +26°C° 0 mm 1 mps 754 mmHg 43%
    07:00 +27°C° 0 mm 1 mps 754 mmHg 40%
    08:00 +28°C° 0 mm 2 mps 754 mmHg 36%
    09:00 +30°C° 0 mm 2 mps 754 mmHg 32%
    10:00 +31°C° 0 mm 2 mps 754 mmHg 30%
    11:00 +32°C° 0 mm 2 mps 753 mmHg 27%
    12:00 +34°C° 0 mm 3 mps 753 mmHg 24%
    13:00 +34°C° 0 mm 2 mps 753 mmHg 23%
    14:00 +35°C° 0 mm 2 mps 752 mmHg 22%
    15:00 +35°C° 0 mm 2 mps 752 mmHg 21%
    16:00 +35°C° 0.1 mm 2 mps 752 mmHg 21%
    17:00 +35°C° 0.1 mm 2 mps 752 mmHg 22%
    18:00 +35°C° 0.1 mm 2 mps 752 mmHg 22%
    19:00 +34°C° 0 mm 2 mps 753 mmHg 24%
    20:00 +32°C° 0 mm 2 mps 753 mmHg 26%
    21:00 +31°C° 0 mm 2 mps 753 mmHg 28%
    22:00 +31°C° 0 mm 3 mps 753 mmHg 31%
    23:00 +30°C° 0 mm 3 mps 753 mmHg 34%

    1 June, Thursday

    Time Temperature Precipitation Wind Pressure Humidity
    00:00 +29°C° 0 mm 4 mps 753 mmHg 38%
    01:00 +28°C° 0 mm 3 mps 753 mmHg 40%
    02:00 +27°C° 0 mm 2 mps 753 mmHg 43%
    03:00 +27°C° 0 mm 1 mps 753 mmHg 46%
    04:00 +27°C° 0 mm 1 mps 753 mmHg 44%
    05:00 +27°C° 0 mm 1 mps 753 mmHg 43%
    06:00 +28°C° 0 mm 1 mps 754 mmHg 41%
    07:00 +29°C° 0 mm 1 mps 754 mmHg 38%
    08:00 +30°C° 0 mm 2 mps 754 mmHg 34%
    09:00 +31°C° 0 mm 2 mps 754 mmHg 31%
    10:00 +34°C° 0 mm 2 mps 754 mmHg 28%
    11:00 +35°C° 0 mm 3 mps 753 mmHg 25%
    12:00 +37°C° 0 mm 3 mps 753 mmHg 21%
    13:00 +37°C° 0 mm 4 mps 753 mmHg 20%
    14:00 +37°C° 0 mm 4 mps 752 mmHg 19%
    15:00 +38°C° 0 mm 4 mps 752 mmHg 18%
    16:00 +38°C° 0 mm 4 mps 752 mmHg 19%
    17:00 +37°C° 0 mm 4 mps 752 mmHg 20%
    18:00 +37°C° 0 mm 4 mps 752 mmHg 21%
    19:00 +36°C° 0 mm 4 mps 753 mmHg 26%
    20:00 +35°C° 0 mm 4 mps 753 mmHg 30%
    21:00 +34°C° 0 mm 4 mps 753 mmHg 34%
    22:00 +33°C° 0 mm 4 mps 753 mmHg 37%
    23:00 +32°C° 0 mm 4 mps 753 mmHg 40%

    2 June, Friday

    Time Temperature Precipitation Wind Pressure Humidity
    00:00 +30°C° 0 mm 4 mps 753 mmHg 43%
    01:00 +30°C° 0 mm 4 mps 753 mmHg 45%
    02:00 +29°C° 0 mm 4 mps 753 mmHg 47%
    03:00 +28°C° 0 mm 3 mps 753 mmHg 48%
    04:00 +28°C° 0 mm 3 mps 753 mmHg 47%
    05:00 +29°C° 0 mm 2 mps 753 mmHg 46%
    06:00 +29°C° 0 mm 2 mps 754 mmHg 45%
    07:00 +30°C° 0 mm 2 mps 754 mmHg 42%
    08:00 +31°C° 0 mm 2 mps 754 mmHg 38%
    09:00 +32°C° 0 mm 2 mps 754 mmHg 34%
    10:00 +34°C° 0 mm 2 mps 753 mmHg 31%
    11:00 +36°C° 0 mm 2 mps 753 mmHg 29%
    12:00 +37°C° 0 mm 3 mps 752 mmHg 26%
    13:00 +37°C° 0 mm 2 mps 752 mmHg 25%
    14:00 +38°C° 0 mm 2 mps 752 mmHg 24%
    15:00 +38°C° 0 mm 2 mps 751 mmHg 22%
    16:00 +38°C° 0 mm 2 mps 751 mmHg 23%
    17:00 +38°C° 0 mm 2 mps 751 mmHg 23%
    18:00 +37°C° 0 mm 2 mps 751 mmHg 23%
    19:00 +37°C° 0 mm 2 mps 752 mmHg 25%
    20:00 +36°C° 0 mm 2 mps 752 mmHg 26%
    21:00 +35°C° 0 mm 2 mps 753 mmHg 28%
    22:00 +34°C° 0 mm 2 mps 752 mmHg 30%
    23:00 +34°C° 0 mm 2 mps 752 mmHg 31%

    3 June, Saturday

    Time Temperature Precipitation Wind Pressure Humidity
    00:00 +32°C° 0 mm 2 mps 752 mmHg 33%
    01:00 +31°C° 0 mm 2 mps 752 mmHg 35%
    02:00 +31°C° 0 mm 2 mps 752 mmHg 38%
    03:00 +30°C° 0 mm 2 mps 751 mmHg 40%
    04:00 +30°C° 0 mm 3 mps 752 mmHg 40%
    05:00 +30°C° 0 mm 3 mps 752 mmHg 41%
    06:00 +31°C° 0 mm 3 mps 752 mmHg 41%
    07:00 +33°C° 0 mm 3 mps 752 mmHg 38%
    08:00 +34°C° 0 mm 3 mps 752 mmHg 35%
    09:00 +35°C° 0 mm 3 mps 752 mmHg 32%
    10:00 +36°C° 0 mm 3 mps 752 mmHg 30%
    11:00 +37°C° 0 mm 3 mps 751 mmHg 28%
    12:00 +38°C° 0 mm 2 mps 751 mmHg 26%
    13:00 +38°C° 0.1 mm 2 mps 751 mmHg 24%
    14:00 +39°C° 0.1 mm 2 mps 750 mmHg 23%
    15:00 +39°C° 0.1 mm 1 mps 750 mmHg 22%
    16:00 +39°C° 0 mm 2 mps 750 mmHg 22%
    17:00 +39°C° 0 mm 2 mps 750 mmHg 23%
    18:00 +38°C° 0 mm 2 mps 750 mmHg 23%
    19:00 +38°C° 0.1 mm 2 mps 751 mmHg 26%
    20:00 +37°C° 0.1 mm 3 mps 751 mmHg 28%
    21:00 +36°C° 0.1 mm 3 mps 752 mmHg 30%
    22:00 +35°C° 0.1 mm 4 mps 752 mmHg 33%
    23:00 +34°C° 0.1 mm 4 mps 752 mmHg 36%
    Show more